Regional Weather Roundup
Issued by NWS Boston, MA

Home | Current Version | Previous Version | Text Only | Print | Product List | Glossary On
Versions: 1 2 3 4 5 6 7 8 9 10 11 12 13 14 15 16 17 18 19 20 21 22 23 24 25 26 27 28
000
ASUS41 KBOX 252110
RWRBOX

REGIONAL WEATHER ROUNDUP
NATIONAL WEATHER SERVICE TAUNTON MA
500 PM EDT WED MAY 25 2016

NOTE:  "FAIR" INDICATES FEW OR NO CLOUDS BELOW 12,000 FEET WITH NO
SIGNIFICANT WEATHER AND/OR OBSTRUCTIONS TO VISIBILITY.  THE FOLLOWING
OBSERVATION LOCATIONS DO NOT REPORT PRESENT WEATHER...PROVINCETOWN...
SMITHFIELD...BLOCK ISLAND...KEENE...AND OXFORD.

MAZALL-252200-
EASTERN MASSACHUSETTS

CITY           SKY/WX    TMP DP  RH WIND       PRES   REMARKS
BOSTON         MOSUNNY   88  45  22 W14G22    29.93S
BEVERLY        CLOUDY    74  58  57 SE6       29.93S
LAWRENCE       SUNNY     88  44  21 W13G22    29.93F
BEDFORD        PTSUNNY   89  45  21 W13G20    29.92S
BLUE HILL        N/A     85  42  22 W15G22    29.96R
NORWOOD        SUNNY     89  44  20 W10       29.93S
MARSHFIELD     SUNNY     88  48  25 W9        29.94R
PLYMOUTH       SUNNY     80  61  52 VRB6      29.97R
TAUNTON        SUNNY     89  52  28 VRB7      29.95R
NEW BEDFORD    SUNNY     80  57  45 SW8       29.96S
$$

MAZALL-252200-
CAPE COD AND THE ISLANDS

CITY           SKY/WX    TMP DP  RH WIND       PRES   REMARKS
FALMOUTH       SUNNY     75  54  46 SW12G22   29.99R
HYANNIS        SUNNY     71  55  56 SW16      29.97S
CHATHAM        SUNNY     64  56  75 SW10      30.00S
PROVINCETOWN   SUNNY     69  57  65 S16       29.97S
NANTUCKET      SUNNY     63  54  72 SW13      30.01S
MARTHAS VNYRD  SUNNY     71  55  56 SW12      30.00R
$$

MAZALL-252200-
CENTRAL AND WESTERN MASSACHUSETTS

CITY           SKY/WX    TMP DP  RH WIND       PRES   REMARKS
WORCESTER      SUNNY     83  41  22 NW16G30   30.00S
FITCHBURG      SUNNY     89  42  19 W15G23    29.95S
ORANGE         CLOUDY    85  46  25 W10G23    29.98R
SPRINGFIELD    PTSUNNY   87  47  25 W13       29.96F
WESTFIELD      SUNNY     88  46  23 NW10      29.98S
NORTH ADAMS    LGT RAIN  76  51  41 NW7G17    30.02R
PITTSFIELD     CLOUDY    78  49  35 NW10      30.03R
$$

RIZALL-252200-
RHODE ISLAND

CITY           SKY/WX    TMP DP  RH WIND       PRES   REMARKS
PROVIDENCE     MOSUNNY   89  42  19 W14G23    29.97R
NEWPORT        SUNNY     77  55  46 SW9       29.98R
BLOCK ISLAND   SUNNY     73  53  49 SW14      30.01S
SMITHFIELD     SUNNY    N/A N/A N/A NW13      29.96S
WESTERLY       SUNNY     79  49  34 SW10G20   30.00S
$$

CTZALL-252200-
CONNECTICUT

CITY           SKY/WX    TMP DP  RH WIND       PRES   REMARKS
BRADLEY INTL   MOSUNNY   88  44  21 W10       29.97S
HARTFORD       SUNNY     90  45  21 NW13G23   29.98R
BRIDGEPORT     SUNNY     85  48  27 SW13      30.01S
DANBURY        SUNNY     86  43  22 W9        30.03S
GROTON         SUNNY     80  52  37 W12       29.99S
NEW HAVEN      SUNNY     78  49  35 SW9       30.01R
CHESTER        FAIR      84  48  28 SW7G15    30.02R
MERIDEN        SUNNY     88  44  21 NW8       30.00S
WILLIMANTIC    SUNNY     90  42  18 NW12      29.98S
OXFORD         SUNNY     84  43  23 NW8       30.05S
$$

MEZ002-015-021-024-NHZ003-005-008-011-012-014-VTZ005-008-252200-
NORTHERN NEW ENGLAND

CITY           SKY/WX    TMP DP  RH WIND       PRES   REMARKS
PORTLAND ME    PTSUNNY   61  54  77 SW6       29.95R
BANGOR ME      PTSUNNY   70  55  59 S14       29.89R
CONCORD NH     CLOUDY    87  47  24 W10       29.92S
MANCHESTER NH  CLOUDY    87  44  22 W7G16     29.92S
NASHUA NH      SUNNY     87  47  24 W14G21    29.93S
PORTSMOUTH NH  PTSUNNY   78  60  53 SE7       29.89F
JAFFREY NH     MOSUNNY   84  42  22 W9        29.99S
KEENE NH       CLOUDY    82  45  26 SW5       29.97S
BURLINGTON VT  PTSUNNY   82  49  31 N16       29.93R
MT. WASHINGTON PTSUNNY   52  43  71 W25         N/A
$$

NYZ052-076-252200-
EASTERN NEW YORK

CITY           SKY/WX    TMP DP  RH WIND       PRES   REMARKS
ALBANY         CLOUDY    81  53  37 W12       30.00R
NEW YORK CITY  PTSUNNY   90  48  23 W12G21    30.01S
$$

ANZALL-252200-
MARINE OBSERVATIONS

STATION/POSITION TIME  TEMP    WIND        PRES    VSBY  WAVE
                       AIR SEA DIR/SP/G                  HT/PER
                 (UTC) (F)     (DEG/KT/KT) (MB)    (MI)  (FT/S)
BOSTON BUOY      2050   60 56  130/  8/  8 1013.8S         2/11
BUZZARDS BAY     2100   63     230/ 19/ 19 1015.7R
NANTUCKET SOUND  2050   59 56  220/ 14/ 16 1015.3S         2/ 3
MASS BAY-STELLWA 2004   57 55                N/A    1 7/8  2/ 8
ISLE OF SHOALS   2100   60     160/ 23/ 23 1012.6F
S OF BLOCK IS    2025      54                N/A           3/ 8
$$

......................KEY.........................
  SKY/WX - SKY CONDITION/PRESENT WEATHER
  TMP    - TEMPERATURE IN FAHRENHEIT
  DWPT   - DEWPOINT IN FAHRENHEIT
  RH     - RELATIVE HUMIDITY IN PERCENT
  WIND   - DIRECTION AND SPEED IN MPH
  PRES   - MEAN SEA LEVEL PRESSURE IN INCHES OF HG
  WCI    - WIND CHILL INDEX
  VSB    - VISIBILITY IN MILES
  HX     - HEAT INDEX
  TC     - TEMPERATURE IN CELSIUS
  VRB    - VARIABLE WIND DIRECTION
  N/A    - NOT AVAILABLE




USA.gov is the U.S. government's official web portal to all federal, state and local government web resources and services.